Location: Unspecified
(0.0000°N, 0.0000°E)
Time: 22:04:08
(UTC+02:00)

Altair - All Passes

Search period start: 30 March 2015 00:00
Search period end: 09 April 2015 00:00
Orbit: 1501 x 1683 km, 47.2° (Epoch: 28 March)

Date Brightness Start Highest point End Pass type
(mag) Time Alt. Az. Time Alt. Az. Time Alt. Az.
30 Mar - 07:03:35 10° SSW 07:12:38 50° SE 07:21:30 10° ENE visible
30 Mar - 09:09:02 10° WSW 09:17:17 33° NW 09:25:09 10° NNE daylight
30 Mar - 17:50:06 10° N 17:56:35 21° NE 18:03:46 10° E daylight
30 Mar - 19:51:49 10° NW 20:01:41 82° SW 20:11:51 10° SE daylight
30 Mar - 22:01:14 10° W 22:07:14 16° SW 22:12:35 10° S visible
31 Mar - 06:38:34 10° SSW 06:47:29 44° SE 06:56:11 10° ENE visible
31 Mar - 08:43:34 10° WSW 08:52:07 38° NW 09:00:18 10° NNE daylight
31 Mar - 17:25:33 10° N 17:31:19 18° NE 17:37:50 10° E daylight
31 Mar - 19:26:40 10° NW 19:36:30 90° SW 19:46:40 10° SE daylight
31 Mar - 21:35:13 10° W 21:41:54 19° SW 21:48:04 10° S visible
01 Apr - 06:13:37 10° SSW 06:22:18 40° SE 06:30:49 10° ENE visible
01 Apr - 08:18:09 10° WSW 08:26:57 43° NW 08:35:25 10° NNE daylight
01 Apr - 17:01:09 10° NNE 17:06:02 16° NE 17:11:43 10° E daylight
01 Apr - 19:01:33 10° NW 19:11:20 82° NE 19:21:28 10° SE daylight
01 Apr - 21:09:21 10° W 21:16:36 21° SW 21:23:27 10° S visible
02 Apr - 05:48:42 10° SSW 05:57:06 35° SE 06:05:25 10° ENE visible
02 Apr - 07:52:46 10° WSW 08:01:48 48° NW 08:10:30 10° NNE daylight
02 Apr - 16:36:58 10° NNE 16:40:44 13° NE 16:45:22 10° ENE daylight
02 Apr - 18:36:27 10° NNW 18:46:10 74° NE 18:56:14 10° SE daylight
02 Apr - 20:43:36 10° W 20:51:19 24° SW 20:58:44 10° S visible
03 Apr - 05:23:49 10° S 05:31:54 31° SE 05:39:58 10° ENE visible
03 Apr - 07:27:25 10° SW 07:36:40 54° NW 07:45:33 10° NNE visible
03 Apr - 16:13:19 10° NNE 16:15:24 11° NE 16:18:26 10° ENE daylight
03 Apr - 18:11:24 10° NNW 18:20:59 67° NE 18:30:59 10° SE daylight
03 Apr - 20:17:56 10° WNW 20:26:02 27° SW 20:33:57 10° S visible
04 Apr - 04:58:58 10° S 05:06:40 28° SE 05:14:27 10° ENE visible
04 Apr - 07:02:07 10° SW 07:11:32 61° NW 07:20:34 10° NNE visible
04 Apr - 17:46:24 10° NNW 17:55:49 60° NE 18:05:40 10° SE daylight
04 Apr - 19:52:21 10° WNW 20:00:47 30° SW 20:09:06 10° S daylight
05 Apr - 04:34:10 10° S 04:41:26 25° SE 04:48:51 10° E visible
05 Apr - 06:36:51 10° SW 06:46:23 69° NW 06:55:33 10° NNE visible
05 Apr - 08:49:06 10° WNW 08:51:47 11° NW 08:53:36 10° NNW daylight
05 Apr - 17:21:25 10° NNW 17:30:39 53° NE 17:40:20 10° SE daylight
05 Apr - 19:26:51 10° WNW 19:35:32 34° SW 19:44:13 10° SSE daylight
06 Apr - 04:09:26 10° S 04:16:11 22° SE 04:23:11 10° E visible
06 Apr - 06:11:37 10° SW 06:21:15 77° NW 06:30:30 10° NE visible
06 Apr - 08:22:12 10° WNW 08:26:30 13° NW 08:30:00 10° NNW daylight
06 Apr - 16:56:27 10° NNW 17:05:28 47° NE 17:14:57 10° ESE daylight
06 Apr - 19:01:23 10° WNW 19:10:18 38° SW 19:19:18 10° SSE daylight
07 Apr - 03:44:47 10° S 03:50:53 19° SE 03:57:24 10° E visible
07 Apr - 05:46:24 10° SW 05:56:07 85° NW 06:05:26 10° NE visible
07 Apr - 07:55:52 10° W 08:01:13 15° NW 08:05:51 10° NNW daylight
07 Apr - 16:31:32 10° NNW 16:40:17 42° NE 16:49:32 10° ESE daylight
07 Apr - 18:35:59 10° WNW 18:45:05 43° SW 18:54:20 10° SSE daylight
08 Apr - 03:20:13 10° S 03:25:35 17° SE 03:31:30 10° E visible
08 Apr - 05:21:13 10° SW 05:30:59 86° SE 05:40:19 10° NE visible
08 Apr - 07:29:49 10° W 07:35:57 18° NW 07:41:27 10° N visible
08 Apr - 16:06:39 10° NNW 16:15:06 37° NE 16:24:03 10° ESE daylight
08 Apr - 18:10:38 10° WNW 18:19:52 48° SW 18:29:20 10° SSE daylight
